User: anonymous
Location: Oshawa
(43.9000°N, 78.8670°W)
Time: 07:35:56
(UTC-04:00)
Language:

PAYLOAD A - Orbit

View from above orbital plane
View from above orbital plane
View from above satellite
View from above satellite

Ground track
Ground track

The orbit data is extracted from the following two-line orbital elements,

1 27840U 03031A   14245.04616455  .00000050  00000-0  29121-4 0  6266
2 27840 098.2322 270.5518 0097312 311.1828 104.4761 14.38720437586767
Epoch (UTC): 02 September 2014 01:06:28
Eccentricity: 0.0097312
inclination: 98.2322°
perigee height: 693 km
apogee height: 832 km
right ascension of ascending node: 270.5518°
argument of perigee: 311.1828°
revolutions per day: 14.38720437
mean anomaly at epoch: 104.4761°
orbit number at epoch: 58676

The dashed part of the orbit path shows where the satellite is in the earth's shadow,  

DLR